• In Romania
  • List of Countries
  • For 7 days
  • Water Temperature
  • Satellite Maps
  • Weather Map
  • Weather Widgets
  • user-avatar
    Login

    Hourly Weather Gold Coast

    Today, 20 November, Monday

    Time Temperature Precipitation Wind Pressure Humidity
    00:00 +17°C° 0.5 mm 4 mps 760 mmHg 92%
    01:00 +17°C° 0.5 mm 4 mps 759 mmHg 93%
    02:00 +17°C° 0.6 mm 4 mps 759 mmHg 94%
    03:00 +16°C° 0.6 mm 5 mps 759 mmHg 94%
    04:00 +16°C° 0 mm 5 mps 759 mmHg 94%
    05:00 +17°C° 0.3 mm 5 mps 760 mmHg 89%
    06:00 +19°C° 0.3 mm 6 mps 760 mmHg 84%
    07:00 +20°C° 0.3 mm 6 mps 760 mmHg 79%
    08:00 +22°C° 0.1 mm 6 mps 760 mmHg 70%
    09:00 +24°C° 0.1 mm 6 mps 760 mmHg 61%
    10:00 +26°C° 0 mm 6 mps 761 mmHg 54%
    11:00 +26°C° 0.3 mm 6 mps 760 mmHg 56%
    12:00 +26°C° 0.3 mm 6 mps 760 mmHg 57%
    13:00 +26°C° 0.3 mm 6 mps 760 mmHg 58%
    14:00 +24°C° 0.4 mm 6 mps 760 mmHg 64%
    15:00 +23°C° 0.4 mm 6 mps 760 mmHg 69%
    16:00 +22°C° 0 mm 6 mps 760 mmHg 74%
    17:00 +21°C° 0.2 mm 6 mps 760 mmHg 79%
    18:00 +20°C° 0.2 mm 5 mps 760 mmHg 83%
    19:00 +19°C° 0.2 mm 5 mps 761 mmHg 88%
    20:00 +17°C° 0.4 mm 5 mps 761 mmHg 89%
    21:00 +17°C° 0.4 mm 5 mps 761 mmHg 91%
    22:00 +16°C° 0.4 mm 5 mps 761 mmHg 92%
    23:00 +16°C° 0.4 mm 5 mps 761 mmHg 92%

    Tomorrow, 21 November, Tuesday

    Time Temperature Precipitation Wind Pressure Humidity
    00:00 +16°C° 0.4 mm 5 mps 760 mmHg 93%
    01:00 +16°C° 0.4 mm 5 mps 760 mmHg 93%
    02:00 +16°C° 0.4 mm 5 mps 760 mmHg 93%
    03:00 +16°C° 0.4 mm 5 mps 760 mmHg 93%
    04:00 +16°C° 0.4 mm 5 mps 760 mmHg 93%
    05:00 +17°C° 0.4 mm 5 mps 760 mmHg 90%
    06:00 +19°C° 0.4 mm 5 mps 760 mmHg 87%
    07:00 +20°C° 0.4 mm 5 mps 760 mmHg 84%
    08:00 +21°C° 0.3 mm 6 mps 760 mmHg 76%
    09:00 +23°C° 0.3 mm 6 mps 760 mmHg 67%
    10:00 +24°C° 0.3 mm 6 mps 760 mmHg 59%
    11:00 +26°C° 0.2 mm 6 mps 760 mmHg 56%
    12:00 +26°C° 0.2 mm 7 mps 760 mmHg 54%
    13:00 +27°C° 0.2 mm 7 mps 759 mmHg 51%
    14:00 +26°C° 0.1 mm 7 mps 759 mmHg 53%
    15:00 +26°C° 0.1 mm 7 mps 759 mmHg 55%
    16:00 +24°C° 0.1 mm 7 mps 758 mmHg 57%
    17:00 +22°C° 0 mm 6 mps 759 mmHg 64%
    18:00 +21°C° 0 mm 6 mps 759 mmHg 70%
    19:00 +19°C° 0 mm 5 mps 759 mmHg 77%
    20:00 +17°C° 0.1 mm 5 mps 760 mmHg 81%
    21:00 +17°C° 0.1 mm 5 mps 760 mmHg 84%
    22:00 +16°C° 0.1 mm 5 mps 760 mmHg 88%
    23:00 +17°C° 0.2 mm 4 mps 760 mmHg 89%

    Day after tomorrow, 22 November, Wednesday

    Time Temperature Precipitation Wind Pressure Humidity
    00:00 +17°C° 0.2 mm 4 mps 759 mmHg 91%
    01:00 +17°C° 0.2 mm 4 mps 759 mmHg 92%
    02:00 +15°C° 0.1 mm 4 mps 758 mmHg 92%
    03:00 +15°C° 0.1 mm 4 mps 758 mmHg 92%
    04:00 +15°C° 0.1 mm 4 mps 758 mmHg 93%
    05:00 +17°C° 0.2 mm 4 mps 758 mmHg 89%
    06:00 +19°C° 0.2 mm 4 mps 759 mmHg 85%
    07:00 +20°C° 0.2 mm 4 mps 759 mmHg 81%
    08:00 +21°C° 0.2 mm 4 mps 759 mmHg 72%
    09:00 +23°C° 0.2 mm 4 mps 759 mmHg 64%
    10:00 +26°C° 0.2 mm 4 mps 759 mmHg 56%
    11:00 +25°C° 0.4 mm 4 mps 758 mmHg 58%
    12:00 +25°C° 0.4 mm 4 mps 758 mmHg 61%
    13:00 +25°C° 0.4 mm 4 mps 757 mmHg 64%
    14:00 +25°C° 0.3 mm 4 mps 757 mmHg 65%
    15:00 +25°C° 0.3 mm 4 mps 757 mmHg 66%
    16:00 +23°C° 0.3 mm 4 mps 757 mmHg 67%
    17:00 +22°C° 0.1 mm 4 mps 757 mmHg 71%
    18:00 +20°C° 0.1 mm 3 mps 758 mmHg 75%
    19:00 +19°C° 0.1 mm 3 mps 758 mmHg 80%
    20:00 +19°C° 0 mm 3 mps 758 mmHg 81%
    21:00 +18°C° 0 mm 2 mps 759 mmHg 83%
    22:00 +17°C° 0 mm 2 mps 759 mmHg 84%
    23:00 +17°C° 0 mm 2 mps 758 mmHg 85%

    23 November, Thursday

    Time Temperature Precipitation Wind Pressure Humidity
    00:00 +17°C° 0 mm 2 mps 758 mmHg 86%
    01:00 +16°C° 0 mm 2 mps 757 mmHg 87%
    02:00 +16°C° 0 mm 2 mps 757 mmHg 88%
    03:00 +16°C° 0 mm 2 mps 757 mmHg 89%
    04:00 +16°C° 0 mm 3 mps 757 mmHg 90%
    05:00 +17°C° 0 mm 3 mps 757 mmHg 84%
    06:00 +19°C° 0 mm 3 mps 758 mmHg 79%
    07:00 +21°C° 0 mm 3 mps 758 mmHg 74%
    08:00 +22°C° 0 mm 3 mps 758 mmHg 66%
    09:00 +25°C° 0 mm 3 mps 758 mmHg 57%
    10:00 +27°C° 0 mm 3 mps 758 mmHg 49%
    11:00 +28°C° 0 mm 3 mps 758 mmHg 48%
    12:00 +28°C° 0 mm 3 mps 757 mmHg 47%
    13:00 +28°C° 0 mm 4 mps 757 mmHg 46%
    14:00 +28°C° 0 mm 4 mps 757 mmHg 48%
    15:00 +27°C° 0 mm 4 mps 756 mmHg 50%
    16:00 +27°C° 0 mm 4 mps 756 mmHg 52%
    17:00 +25°C° 0 mm 4 mps 757 mmHg 60%
    18:00 +22°C° 0 mm 4 mps 757 mmHg 69%
    19:00 +20°C° 0 mm 3 mps 758 mmHg 77%
    20:00 +20°C° 0 mm 3 mps 758 mmHg 81%
    21:00 +19°C° 0 mm 3 mps 758 mmHg 85%
    22:00 +18°C° 0 mm 2 mps 759 mmHg 89%
    23:00 +18°C° 0 mm 2 mps 758 mmHg 91%

    24 November, Friday

    Time Temperature Precipitation Wind Pressure Humidity
    00:00 +18°C° 0 mm 2 mps 758 mmHg 92%
    01:00 +18°C° 0 mm 2 mps 757 mmHg 93%
    02:00 +17°C° 0 mm 2 mps 757 mmHg 94%
    03:00 +17°C° 0 mm 2 mps 757 mmHg 94%
    04:00 +17°C° 0 mm 2 mps 757 mmHg 95%
    05:00 +19°C° 0 mm 2 mps 758 mmHg 88%
    06:00 +21°C° 0 mm 2 mps 758 mmHg 81%
    07:00 +23°C° 0 mm 2 mps 759 mmHg 74%
    08:00 +26°C° 0 mm 2 mps 758 mmHg 64%
    09:00 +28°C° 0 mm 3 mps 758 mmHg 54%
    10:00 +30°C° 0 mm 3 mps 758 mmHg 44%
    11:00 +30°C° 0 mm 3 mps 758 mmHg 43%
    12:00 +30°C° 0 mm 4 mps 757 mmHg 42%
    13:00 +32°C° 0 mm 4 mps 757 mmHg 41%
    14:00 +30°C° 0 mm 4 mps 756 mmHg 45%
    15:00 +29°C° 0 mm 4 mps 756 mmHg 49%
    16:00 +28°C° 0 mm 4 mps 756 mmHg 52%
    17:00 +26°C° 0 mm 4 mps 757 mmHg 61%
    18:00 +23°C° 0 mm 4 mps 757 mmHg 70%
    19:00 +21°C° 0 mm 3 mps 758 mmHg 80%
    20:00 +20°C° 0 mm 3 mps 758 mmHg 84%
    21:00 +20°C° 0 mm 3 mps 759 mmHg 88%
    22:00 +19°C° 0 mm 2 mps 759 mmHg 91%
    23:00 +18°C° 0 mm 2 mps 759 mmHg 92%

    25 November, Saturday

    Time Temperature Precipitation Wind Pressure Humidity
    00:00 +18°C° 0 mm 2 mps 758 mmHg 93%
    01:00 +18°C° 0 mm 2 mps 758 mmHg 94%
    02:00 +17°C° 0 mm 3 mps 757 mmHg 94%
    03:00 +17°C° 0 mm 3 mps 757 mmHg 94%
    04:00 +17°C° 0 mm 3 mps 757 mmHg 94%
    05:00 +19°C° 0 mm 3 mps 758 mmHg 87%
    06:00 +20°C° 0 mm 3 mps 758 mmHg 80%
    07:00 +22°C° 0 mm 4 mps 758 mmHg 73%
    08:00 +25°C° 0 mm 4 mps 758 mmHg 62%
    09:00 +28°C° 0 mm 4 mps 758 mmHg 51%
    10:00 +30°C° 0 mm 4 mps 758 mmHg 40%
    11:00 +30°C° 0 mm 4 mps 757 mmHg 39%
    12:00 +32°C° 0 mm 5 mps 757 mmHg 38%
    13:00 +33°C° 0 mm 5 mps 757 mmHg 36%
    14:00 +32°C° 0 mm 5 mps 757 mmHg 41%
    15:00 +30°C° 0 mm 5 mps 757 mmHg 46%
    16:00 +30°C° 0 mm 6 mps 757 mmHg 51%
    17:00 +28°C° 0 mm 5 mps 757 mmHg 63%
    18:00 +26°C° 0 mm 5 mps 758 mmHg 75%
    19:00 +22°C° 0 mm 4 mps 758 mmHg 87%
    20:00 +22°C° 0 mm 4 mps 758 mmHg 89%
    21:00 +21°C° 0 mm 4 mps 759 mmHg 92%
    22:00 +21°C° 0 mm 4 mps 759 mmHg 95%
    23:00 +21°C° 0.1 mm 3 mps 759 mmHg 95%
    Show more